Temperature
16 16 16 16 16 15 15 15 15 15 15 15 15 15 15 15 14 14 14 14 14 14 14 14 14 14 14 14 14 14 14 14 14 15 15 15 15 15 15 15 15 15 15
16 16 16 15 15 15 15 15 15 15 15 15 15 15 15 15 15 14 14 14 14 14 14 14 14 14 14 14 14 14 14 14 14 14 15 14 14 14 14 14 14 15 15
15 15 15 15 15 15 15 15 14 14 15 15 15 15 15 15 15 15 14 14 14 14 14 14 14 14 14 14 14 14 14 14 14 14 14 14 14 14 14 14 14 14 14
15 15 15 14 14 14 14 14 14 14 14 14 14 14 14 14 14 14 14 14 14 14 14 14 14 14 14 14 14 14 14 14 14 14 14 14 14 14 14 14 14 14 14
14 14 14 14 14 14 14 14 14 14 13 14 14 14 14 14 14 14 14 14 14 14 14 14 14 14 14 14 14 14 14 14 14 14 14 14 14 14 14 14 14 13 13
14 14 13 13 13 13 13 13 13 13 13 13 13 13 13 13 14 14 14 14 14 14 14 14 14 14 14 14 14 14 14 14 14 14 14 14 14 14 14 14 13 13 13
13 13 13 13 13 13 13 13 13 13 12 12 13 13 13 13 13 13 14 14 14 14 14 14 14 14 14 14 14 14 14 14 14 14 14 14 14 14 14 13 13 13 13
13 13 12 12 12 12 12 12 12 12 12 12 12 12 12 13 13 13 13 13 13 13 14 14 14 14 14 14 14 13 13 14 14 14 14 14 14 14 14 14 13 13 13
12 12 12 12 12 12 12 12 12 12 12 12 12 12 12 12 13 13 13 13 13 13 13 13 14 14 14 14 14 13 13 13 13 13 13 13 13 13 13 13 13 13 12
12 11 11 11 11 11 11 11 11 11 11 11 11 11 12 12 12 12 12 12 12 13 13 13 13 13 13 13 13 13 13 13 13 13 13 13 13 13 13 13 13 13 12
11 11 11 11 11 11 11 11 11 11 11 11 11 11 11 12 12 12 12 12 12 12 12 12 13 13 13 13 13 13 13 13 13 13 13 13 13 13 13 13 13 13 13
11 11 11 11 11 11 11 10 10 10 10 10 10 10 11 11 11 11 12 12 12 12 12 12 12 13 13 13 13 13 13 13 12 12 12 12 12 12 12 12 12 12 12
10 10 10 10 10 10 10 10 10 10 9 9 10 10 10 10 11 11 11 11 11 11 11 11 12 12 12 12 12 13 12 12 12 12 12 12 12 12 12 12 12 12 12
10 10 10 10 10 10 9 9 9 9 9 9 9 9 9 9 10 10 10 10 10 10 11 11 11 11 12 12 12 12 12 12 12 12 12 12 12 12 12 12 11 11 11
10 10 10 9 9 9 9 9 9 9 9 9 9 9 9 9 9 9 9 9 9 10 10 10 10 11 11 11 11 12 12 12 12 12 12 11 11 11 11 11 11 11 11
9 9 9 9 9 8 8 8 8 8 8 8 8 8 8 9 9 9 9 9 9 9 9 9 10 10 10 10 11 11 11 11 12 12 11 11 11 11 11 11 10 10 10
9 9 9 8 8 8 8 8 8 8 8 8 8 8 8 8 8 8 9 9 9 9 9 9 9 9 10 10 10 11 11 11 11 11 11 11 11 11 10 10 10 10 10
8 8 8 8 8 8 7 7 8 8 8 8 8 8 8 8 8 8 8 8 8 8 8 8 9 9 9 10 10 10 10 10 11 11 11 10 10 10 10 10 10 10 9
8 8 8 7 7 7 7 7 7 7 7 7 7 7 7 7 8 8 8 7 8 8 8 8 8 9 9 9 9 10 10 10 10 10 10 10 10 10 10 10 9 9 9
8 7 7 7 7 7 7 7 7 7 7 7 7 7 7 7 7 7 7 7 7 7 7 8 8 8 8 9 9 9 9 10 10 10 10 10 10 10 10 9 9 9 9
7 7 7 7 7 7 7 7 7 7 7 7 7 7 7 7 7 7 7 7 7 7 7 7 7 8 8 8 9 9 9 9 9 10 10 10 9 9 9 9 9 9 9
7 6 6 6 6 6 6 6 6 6 6 6 6 6 6 6 6 6 6 6 6 7 7 7 7 7 8 8 8 9 9 9 9 9 9 9 9 9 9 9 9 8 8
6 6 6 6 6 6 6 6 6 6 6 6 6 6 6 6 6 6 6 6 6 6 6 6 6 7 7 7 8 8 9 9 9 9 9 9 9 9 8 9 8 8 8
6 6 5 5 5 5 6 6 6 6 6 6 6 6 5 5 5 5 5 5 5 5 6 6 6 6 7 7 7 8 8 8 9 9 9 9 9 8 8 8 8 8 8
5 5 5 5 5 5 5 5 5 5 5 5 5 5 5 5 5 5 5 5 5 5 5 5 5 6 6 6 7 7 7 8 8 8 8 8 8 8 8 8 8 8 7
5 5 5 5 5 5 5 5 5 5 5 5 5 5 5 4 4 4 4 4 4 4 4 5 5 5 5 6 6 7 7 7 8 8 8 8 8 8 8 8 7 7 7
Wind_Speed
4 4 4 3 2 3 3 4 4 5 6 5 5 5 4 4 3 3 3 4 4 4 4 4 4 3 3 2 2 2 2 3 2 1 1 2 3 3 4 5 7 7 8
4 5 5 4 4 4 4 4 5 6 6 6 5 5 5 4 3 3 4 4 4 4 5 4 3 3 3 3 3 3 3 3 3 3 1 2 3 3 4 4 4 6 6
4 5 5 5 4 5 5 5 5 6 6 7 7 5 5 4 4 4 4 4 4 5 4 4 3 2 3 3 3 3 3 3 2 3 3 2 2 2 3 3 4 3 5
4 4 4 6 5 5 5 5 5 5 6 7 7 6 5 5 4 3 3 4 4 5 4 3 3 2 2 2 3 3 3 3 3 3 3 3 3 3 4 3 2 2 3
4 4 4 6 6 6 6 6 6 5 7 6 7 7 6 5 4 3 3 4 4 5 4 3 3 3 3 2 2 1 1 2 3 3 3 3 3 3 4 4 4 3 2
4 5 5 6 6 6 6 7 7 7 7 6 7 8 7 6 5 5 4 4 5 5 4 4 4 5 5 5 4 3 3 3 4 4 4 4 4 4 4 4 4 4 2
4 5 5 6 6 6 7 7 7 7 7 7 7 7 7 7 8 7 6 5 6 6 5 4 4 4 5 5 5 6 4 4 4 4 4 5 5 5 6 5 4 4 3
5 6 6 6 6 6 6 7 7 7 7 6 7 8 7 8 9 9 8 5 6 7 6 5 5 4 4 5 4 4 4 4 5 4 4 4 4 4 6 6 6 4 3
5 6 7 7 7 7 7 7 7 7 7 7 7 8 8 8 10 10 8 5 5 7 7 6 5 4 6 6 5 5 4 4 4 5 5 4 5 6 6 5 5 5 4
6 6 7 7 7 7 7 7 6 7 7 8 8 8 9 8 9 10 8 4 5 5 5 6 6 6 6 6 6 6 6 5 5 5 5 4 4 5 7 6 6 6 4
6 6 7 7 8 8 6 6 7 7 7 8 9 8 8 9 9 9 7 4 5 5 5 5 4 6 7 6 6 5 6 6 5 6 5 5 4 4 4 4 4 4 4
6 6 7 7 8 8 6 6 7 7 7 8 8 8 7 7 7 8 10 10 7 5 5 4 4 5 6 7 6 7 7 5 4 4 5 5 5 4 4 4 4 4 4
6 6 7 7 7 6 6 6 7 6 6 6 6 7 7 7 7 9 8 9 9 6 5 6 6 6 6 6 8 9 7 5 5 4 5 5 5 5 5 4 4 5 5
7 6 6 7 7 7 6 5 5 6 6 6 7 7 8 7 6 5 5 6 7 7 6 6 7 7 7 7 7 7 6 6 6 5 5 5 5 5 5 5 4 5 4
7 7 6 6 6 6 6 6 7 6 6 7 7 7 8 8 9 10 9 7 6 6 6 4 3 3 5 5 5 6 6 6 7 6 5 5 6 6 5 5 5 4 4
7 7 6 5 5 6 6 8 10 10 13 13 12 12 10 12 14 13 14 13 12 11 8 6 6 6 7 7 7 7 7 8 8 7 6 7 7 7 6 5 5 5 5
7 7 6 6 6 6 7 8 8 9 11 12 13 13 13 14 14 14 13 13 12 10 8 7 7 7 7 7 7 7 8 8 7 7 7 7 7 7 7 7 6 6 5
7 8 8 6 6 6 7 8 8 8 8 7 9 11 13 13 12 12 12 10 7 6 7 8 8 7 7 7 7 7 7 7 7 7 8 8 8 8 8 8 7 7 6
6 6 6 6 6 8 8 8 8 8 8 8 7 8 10 10 10 10 8 6 7 7 7 8 8 7 6 7 7 7 7 7 7 8 8 8 8 8 8 8 8 10 7
6 10 9 7 7 8 8 8 8 8 8 8 8 7 6 6 6 6 6 6 7 8 8 8 8 8 7 6 6 6 7 7 8 8 8 8 8 8 9 9 8 8 6
6 7 11 9 8 8 8 8 9 8 8 8 8 9 10 7 7 7 7 7 7 8 8 8 8 7 7 6 6 7 8 7 8 8 8 8 8 8 8 8 8 8 7
6 7 7 8 8 8 9 9 9 9 9 10 8 9 11 7 7 7 7 8 7 7 7 7 7 7 6 6 7 8 8 9 8 8 9 9 8 8 8 8 8 8 8
7 8 8 9 9 11 11 9 9 9 9 8 8 8 7 7 7 7 8 8 7 7 7 7 7 6 6 6 7 8 9 9 9 9 9 9 9 8 8 9 10 11 10
7 9 9 10 10 9 9 9 9 9 9 8 8 8 8 8 8 8 8 7 7 7 7 7 7 9 9 7 6 6 6 8 10 10 11 11 11 9 8 9 9 11 10
8 9 10 10 10 10 10 10 9 9 9 8 8 8 8 8 8 8 7 7 8 8 8 8 6 7 8 8 7 5 7 10 12 11 10 10 11 12 11 10 9 10 9
9 10 10 9 9 10 9 9 9 10 9 8 8 8 8 8 8 8 8 7 8 8 7 7 8 9 8 7 7 7 7 9 12 13 10 9 11 11 12 10 11 10 12
Wind_Direction
351 339 338 336 328 320 308 304 298 286 280 273 262 262 263 260 257 245 246 261 272 282 270 241 235 231 223 234 234 231 217 189 204 246 206 151 152 152 150 160 159 160 168
352 343 345 346 329 309 307 306 303 303 301 295 282 270 267 262 255 247 251 257 255 266 274 269 252 239 220 227 222 227 220 202 182 198 207 170 170 172 161 162 160 163 159
359 350 342 331 328 320 314 309 313 313 312 308 300 289 283 276 262 246 241 253 252 253 260 262 254 244 241 230 218 223 211 202 173 178 199 186 171 168 149 153 157 152 159
9 352 339 332 331 322 318 317 315 318 315 317 311 301 293 284 277 266 264 260 260 261 252 244 246 223 223 236 228 224 211 195 182 179 186 186 172 174 155 156 153 162 164
6 354 339 332 335 336 335 324 315 309 308 307 313 307 301 297 290 293 294 283 273 272 261 237 217 192 184 205 210 218 220 203 187 180 191 188 180 167 173 172 167 159 163
356 351 342 340 339 335 329 327 325 316 308 308 309 308 302 299 296 285 281 287 281 272 263 249 214 199 196 191 181 178 182 202 202 193 198 193 190 177 168 163 159 154 175
359 354 347 339 335 329 328 324 315 309 302 300 295 295 292 284 280 268 268 268 273 267 260 257 251 213 190 186 196 201 202 214 211 201 202 204 189 180 166 164 165 160 169
2 350 342 336 334 324 316 311 307 309 307 300 294 289 288 283 277 261 257 258 270 267 259 246 242 224 205 193 197 200 200 206 218 213 201 201 183 165 168 171 167 147 118
355 341 337 334 328 316 310 305 304 306 305 299 295 289 287 282 272 261 252 255 264 266 261 251 236 222 215 202 202 204 198 201 199 178 167 161 153 158 157 142 147 148 155
345 334 329 321 316 305 303 304 303 301 297 302 299 293 290 287 277 263 252 253 260 267 266 254 229 220 217 213 204 203 202 199 184 175 173 173 173 167 164 161 160 161 157
331 322 315 313 310 303 304 308 307 305 304 304 299 296 296 294 288 274 254 254 263 272 273 267 242 214 212 215 213 211 203 193 189 184 181 180 173 165 163 163 158 159 158
317 310 308 307 310 318 310 306 306 306 305 304 303 305 304 302 292 276 262 253 261 264 276 281 267 224 218 219 221 220 202 190 191 192 182 182 178 172 168 166 154 139 133
307 305 303 305 308 314 314 313 311 310 306 306 308 309 309 306 305 296 284 270 264 263 273 284 283 256 241 229 228 224 210 197 193 196 192 189 179 167 153 144 128 113 101
309 307 309 313 316 320 316 304 304 305 304 307 310 308 307 303 303 308 309 300 287 274 272 279 271 254 244 233 230 226 216 204 196 200 192 178 161 154 152 148 142 133 115
313 313 312 313 310 310 307 298 297 288 285 289 289 293 296 296 290 292 293 291 285 274 279 267 263 258 251 241 225 218 210 200 202 200 187 174 167 164 164 160 154 148 147
315 313 309 310 307 304 304 303 294 288 288 285 277 281 286 281 286 285 286 283 279 273 273 257 246 237 239 237 225 219 216 207 200 194 186 178 174 170 168 164 159 158 158
308 308 309 306 305 304 305 301 301 299 288 285 286 288 284 282 287 286 285 284 279 274 263 255 249 239 236 235 233 220 215 209 197 187 182 180 176 172 170 170 169 167 165
306 308 309 302 305 302 296 292 289 293 300 298 292 290 290 288 288 288 288 293 283 260 251 254 252 246 240 234 234 227 215 203 193 187 184 181 178 175 173 175 174 174 170
305 300 299 302 298 294 290 288 286 288 290 294 296 296 293 296 293 285 283 278 270 268 262 258 256 254 246 241 237 229 215 204 196 188 185 184 180 176 175 175 174 174 168
292 293 299 297 294 292 291 293 292 289 289 290 289 289 294 302 297 289 279 274 270 266 265 266 260 253 247 241 236 226 218 205 198 195 187 185 183 177 173 170 169 170 171
291 294 299 298 291 292 294 294 294 288 285 286 286 284 284 281 280 278 275 272 274 273 269 267 266 261 252 242 231 223 217 208 200 194 185 181 179 176 171 167 166 162 157
294 294 293 292 292 291 291 291 291 287 284 285 287 287 282 275 274 278 276 274 274 275 275 270 265 258 253 247 234 223 215 208 200 194 188 180 176 173 168 164 162 160 158
291 293 295 295 293 292 292 289 290 287 284 284 287 288 282 275 275 278 280 281 281 281 284 280 274 268 259 255 243 225 217 209 197 189 186 180 174 171 167 165 163 162 162
295 295 294 293 291 289 289 289 288 288 285 283 283 283 279 276 276 277 277 279 280 278 279 281 276 272 265 261 253 234 221 205 188 185 181 177 173 170 168 167 166 166 164
293 291 291 290 290 290 289 289 288 290 289 285 283 283 281 279 278 276 274 275 277 275 274 277 278 275 265 256 252 244 220 200 190 181 176 176 171 167 166 167 168 163 159
288 288 287 288 288 287 286 287 287 289 287 284 283 281 281 280 279 277 274 274 275 273 270 272 274 273 268 255 243 233 217 193 181 176 175 174 170 168 164 166 164 164 159
Height
1515 1514 1513 1512 1511 1510 1509 1508 1507 1505 1505 1503 1502 1501 1500 1499 1498 1497 1496 1495 1494 1493 1493 1493 1492 1492 1492 1492 1492 1493 1494 1495 1495 1496 1496 1497 1498 1500 1501 1503 1504 1506 1508
1514 1513 1512 1511 1509 1508 1507 1506 1504 1503 1502 1501 1500 1499 1498 1497 1496 1494 1493 1493 1492 1492 1491 1491 1490 1490 1490 1490 1490 1491 1491 1492 1493 1493 1494 1495 1496 1498 1499 1500 1502 1504 1505
1512 1511 1510 1509 1508 1507 1505 1504 1502 1501 1499 1498 1497 1496 1495 1494 1493 1492 1491 1490 1490 1489 1489 1488 1488 1488 1488 1488 1488 1488 1489 1490 1490 1491 1491 1493 1494 1495 1497 1498 1500 1501 1503
1511 1510 1508 1507 1506 1504 1503 1501 1500 1498 1496 1495 1494 1493 1492 1491 1490 1489 1489 1488 1487 1487 1486 1486 1485 1485 1485 1485 1485 1486 1486 1487 1487 1488 1489 1490 1492 1493 1495 1496 1497 1499 1501
1510 1508 1507 1505 1504 1502 1500 1499 1497 1495 1494 1492 1490 1489 1488 1487 1487 1486 1485 1484 1484 1484 1483 1483 1483 1482 1482 1482 1483 1483 1483 1484 1484 1485 1486 1488 1489 1490 1492 1493 1495 1497 1499
1509 1507 1505 1503 1501 1499 1497 1496 1494 1492 1490 1489 1487 1485 1484 1483 1483 1482 1482 1481 1480 1480 1480 1480 1480 1479 1479 1479 1479 1480 1480 1481 1481 1482 1483 1484 1485 1487 1489 1490 1492 1494 1496
1507 1505 1503 1501 1499 1496 1495 1493 1490 1489 1487 1485 1483 1482 1480 1480 1479 1478 1478 1477 1476 1476 1476 1476 1476 1476 1476 1476 1476 1476 1477 1478 1479 1480 1480 1481 1482 1484 1485 1487 1489 1491 1493
1505 1503 1501 1498 1496 1494 1492 1489 1487 1486 1484 1481 1480 1478 1476 1475 1475 1474 1473 1473 1472 1471 1471 1471 1472 1472 1472 1472 1472 1473 1473 1474 1475 1476 1477 1478 1479 1481 1482 1484 1486 1488 1491
1503 1500 1498 1496 1493 1491 1488 1486 1484 1482 1480 1478 1476 1474 1472 1470 1470 1469 1469 1468 1467 1466 1466 1467 1467 1467 1468 1468 1469 1469 1469 1470 1471 1472 1473 1475 1476 1477 1479 1481 1483 1485 1486
1500 1498 1495 1493 1491 1488 1486 1483 1481 1479 1476 1474 1472 1470 1468 1466 1465 1465 1464 1463 1462 1461 1461 1461 1462 1462 1463 1463 1464 1464 1465 1466 1467 1468 1469 1471 1472 1474 1476 1477 1479 1481 1483
1497 1495 1493 1490 1488 1485 1483 1480 1478 1475 1472 1470 1467 1466 1464 1462 1460 1460 1459 1458 1457 1457 1456 1456 1456 1457 1457 1458 1459 1459 1460 1462 1463 1464 1465 1467 1468 1470 1472 1474 1476 1478 1480
1494 1492 1489 1487 1485 1482 1479 1477 1474 1471 1469 1466 1463 1461 1459 1458 1456 1455 1454 1453 1453 1452 1451 1451 1451 1451 1451 1452 1453 1454 1456 1457 1459 1460 1461 1462 1464 1466 1468 1470 1472 1474 1476
1491 1488 1486 1484 1481 1479 1476 1473 1470 1468 1465 1462 1460 1457 1455 1453 1451 1450 1449 1448 1447 1447 1445 1445 1445 1444 1445 1445 1446 1448 1450 1452 1453 1455 1456 1458 1460 1462 1464 1466 1469 1471 1473
1487 1485 1483 1480 1477 1475 1472 1469 1467 1464 1461 1459 1456 1453 1450 1448 1446 1445 1443 1442 1441 1440 1440 1439 1438 1438 1438 1439 1440 1441 1443 1445 1447 1449 1451 1453 1456 1458 1460 1462 1464 1466 1469
1484 1481 1479 1476 1473 1470 1468 1466 1463 1460 1458 1455 1452 1449 1446 1443 1441 1440 1438 1436 1435 1434 1434 1433 1432 1431 1431 1432 1433 1434 1437 1439 1441 1443 1446 1448 1451 1453 1455 1458 1460 1463 1465
1479 1477 1475 1472 1469 1466 1463 1460 1457 1456 1453 1451 1448 1446 1442 1440 1437 1434 1432 1431 1429 1429 1428 1426 1425 1425 1425 1426 1426 1428 1430 1432 1434 1437 1440 1443 1445 1447 1450 1453 1456 1458 1460
1475 1473 1470 1467 1464 1461 1458 1455 1451 1448 1447 1445 1442 1440 1437 1434 1431 1429 1426 1424 1423 1422 1421 1419 1419 1419 1419 1420 1420 1421 1423 1425 1428 1430 1433 1436 1439 1442 1445 1447 1450 1453 1456
1470 1468 1465 1463 1460 1457 1454 1450 1447 1444 1440 1437 1436 1434 1431 1428 1425 1423 1421 1418 1416 1415 1414 1413 1413 1412 1412 1412 1414 1414 1416 1418 1421 1424 1427 1430 1433 1436 1439 1442 1445 1448 1451
1465 1463 1460 1458 1455 1451 1448 1445 1442 1439 1436 1433 1430 1427 1425 1422 1419 1417 1415 1413 1410 1408 1407 1406 1406 1406 1406 1406 1406 1407 1409 1410 1413 1416 1420 1423 1426 1430 1433 1436 1440 1443 1446
1460 1458 1455 1452 1449 1446 1443 1440 1437 1434 1430 1427 1424 1421 1419 1416 1413 1410 1409 1407 1405 1403 1401 1400 1399 1399 1399 1399 1399 1400 1401 1403 1405 1409 1412 1416 1420 1423 1427 1430 1434 1437 1441
1454 1452 1449 1446 1443 1440 1437 1434 1431 1428 1424 1421 1418 1416 1413 1410 1407 1405 1403 1400 1398 1396 1395 1393 1392 1391 1391 1391 1391 1392 1393 1395 1398 1401 1405 1409 1413 1417 1421 1425 1429 1432 1436
1448 1446 1443 1440 1437 1434 1431 1427 1424 1421 1418 1415 1411 1409 1407 1404 1401 1399 1396 1394 1392 1390 1388 1387 1385 1384 1384 1383 1384 1384 1386 1388 1391 1394 1398 1402 1406 1410 1414 1419 1423 1427 1430
1442 1439 1436 1433 1430 1427 1424 1420 1417 1414 1411 1408 1405 1402 1399 1397 1394 1392 1389 1387 1385 1383 1381 1379 1378 1376 1376 1376 1376 1377 1379 1381 1384 1387 1390 1395 1399 1404 1408 1412 1416 1420 1424
1436 1433 1430 1426 1423 1420 1416 1413 1409 1406 1404 1401 1398 1395 1392 1389 1387 1384 1382 1380 1377 1375 1374 1372 1371 1370 1369 1369 1368 1370 1372 1374 1377 1381 1384 1388 1392 1397 1401 1406 1410 1415 1419
1429 1426 1422 1419 1416 1412 1409 1405 1402 1399 1396 1393 1390 1387 1384 1382 1379 1377 1374 1372 1370 1368 1366 1365 1363 1362 1361 1361 1361 1362 1364 1367 1370 1374 1378 1382 1386 1390 1395 1400 1404 1409 1413
1421 1418 1415 1412 1408 1405 1401 1398 1394 1391 1388 1385 1382 1379 1376 1374 1371 1369 1367 1364 1362 1360 1358 1357 1356 1355 1354 1354 1354 1355 1357 1360 1363 1367 1371 1375 1380 1384 1389 1394 1399 1403 1407